Welcome to Sulphur Springs Municipal Airport

Strategically located between Dallas and Texarkana, Sulphur Springs Municipal Airport (KSLR) offers exceptional business and aviation services along with superior investment opportunities, abundant space for growth, and lakefront access. We’re a friendly and bustling connector to the Texas, Oklahoma, Arkansas and Louisiana region. Sulphur Springs Municipal Airport is a rapidly emerging center for business, commerce and mobility. We invite you to stop on in!

METAR: KSLR 202315Z AUTO 34020G23KT 10SM CLR 11/03 A3018 RMK AO2 T01140027